PILOTS ONLINE: 346    ATC ONLINE: 35

EGPC

Wick Airport

Location

IATA WIC
City Wick
Country  United Kingdom
Latitude 58° 27' 32" N
Longitude 3° 5' 35" W
Elevation 126 ft
Type Medium Airport

Map

Weather

METAR
2014/09/20 03:20
EGPC 200320Z AUTO 26004KT 9000 FEW026/// BKN040/// 11/10 Q1017
TAF
No TAF available

Runways

08/26 3399 ft / 148 ft
13/31 5988 ft / 148 ft

Outbound flights

Callsign Flying to Pilot ATD/STD ETA Aircraft

Inbound flights

Callsign Flying from Pilot ATD ETA Aircraft